Temperature
15 16 16 17 14 13 15 15 17 17 17 18 17 17 15 15 16 16 15 15 15 16 16 16 16 16 16 16 16 16 16 16 16 16 16 16 16 16 16 16 16 16 16 16 16 16 16 16 15
15 15 16 16 13 13 14 15 16 17 18 18 17 16 15 14 14 14 14 15 15 15 16 16 16 16 16 16 16 16 16 16 16 16 16 16 16 16 16 16 16 16 16 16 16 16 16 15 15
15 15 16 12 13 13 15 15 15 17 18 18 16 15 15 14 14 14 14 15 15 15 15 15 16 16 16 16 16 16 16 16 16 16 16 15 15 15 15 15 15 15 15 15 15 15 15 15 15
14 15 14 12 14 14 15 15 15 16 17 17 15 14 14 14 14 14 14 14 15 15 15 15 15 15 15 15 15 15 15 15 15 15 15 15 15 15 15 15 15 15 15 15 15 15 15 15 15
14 14 12 12 13 14 14 15 16 16 16 15 14 13 13 14 14 14 14 14 15 15 15 15 15 15 15 15 15 15 15 15 15 15 15 15 15 15 15 15 15 15 15 15 15 15 15 15 15
13 12 11 11 13 14 15 16 16 15 15 15 14 12 12 13 14 14 14 14 15 15 15 15 15 15 15 15 15 15 15 15 15 15 15 15 15 15 14 14 14 14 14 14 14 15 15 15 15
12 10 11 12 12 14 15 16 16 14 14 14 14 12 12 13 13 14 14 14 14 14 14 14 14 14 14 15 15 15 15 15 15 15 15 14 14 14 14 14 14 14 14 14 14 14 14 14 14
13 10 12 12 13 14 15 15 15 15 13 14 14 12 12 13 13 13 14 14 14 14 14 14 14 14 14 14 14 14 14 14 14 14 14 14 14 14 14 14 14 14 14 14 14 14 14 14 14
13 10 11 12 12 13 14 14 14 14 14 14 13 14 13 13 13 13 13 13 13 14 14 14 14 14 14 14 14 14 14 14 14 14 14 14 14 14 13 13 13 13 13 13 13 13 13 14 13
12 10 12 12 12 12 13 13 13 13 13 12 13 13 13 13 13 13 13 13 13 13 13 13 14 14 14 14 14 14 14 13 13 13 13 13 13 13 13 13 13 13 13 13 13 13 13 13 13
11 10 12 12 13 13 13 13 13 13 12 12 13 13 12 12 12 13 13 13 13 13 13 13 13 13 13 13 13 13 13 13 13 13 13 13 13 13 13 13 13 13 13 13 13 13 13 13 13
11 11 12 12 13 13 13 13 12 13 13 14 14 13 12 12 12 12 12 13 13 13 13 13 13 13 13 13 13 13 13 13 13 13 13 13 13 13 13 12 12 12 12 12 12 13 13 12 12
10 11 11 12 13 12 13 12 12 12 13 13 13 12 12 12 12 12 12 12 12 13 13 13 13 13 13 13 13 13 13 13 13 12 12 12 12 12 12 12 12 12 12 12 12 12 12 12 12
10 11 11 12 12 12 12 11 12 11 12 12 12 12 12 12 12 12 12 12 12 12 12 13 13 13 13 13 13 12 12 12 12 12 12 12 12 12 12 12 12 12 12 12 12 12 12 12 12
11 10 10 11 11 11 12 11 10 12 12 12 12 12 11 11 11 12 12 12 12 12 12 12 12 12 12 12 12 12 12 12 12 12 12 12 12 11 11 11 11 11 11 11 11 11 11 12 11
10 9 9 10 11 11 11 11 11 12 12 11 11 11 11 11 11 11 11 12 12 12 12 12 12 12 12 12 12 12 12 12 11 11 11 11 11 11 11 11 11 11 11 11 11 11 11 11 11
9 9 9 10 11 11 10 10 11 11 11 11 11 11 11 11 11 11 11 11 11 12 12 12 12 12 12 12 12 11 11 11 11 11 11 11 11 11 10 10 10 10 10 10 10 11 11 11 11
9 9 9 9 10 10 10 9 10 11 11 11 11 11 11 11 11 11 11 11 11 11 11 11 11 11 11 11 11 11 11 11 11 10 10 10 10 10 10 10 10 10 10 10 10 10 10 10 10
9 9 9 10 10 10 9 9 9 10 10 10 11 11 11 11 11 11 11 11 11 11 11 11 11 11 11 11 11 11 11 10 10 10 10 10 10 10 9 9 9 9 9 9 9 9 9 10 10
9 9 9 9 10 10 9 9 9 9 10 10 11 11 11 11 11 11 11 11 11 11 11 11 11 11 11 11 11 10 10 10 10 10 10 9 9 9 9 9 9 9 9 9 9 9 9 9 9
9 9 9 9 9 10 10 9 9 10 10 10 11 11 11 11 11 11 11 11 11 11 11 11 11 11 10 10 10 10 10 10 10 9 9 9 9 9 9 9 9 8 8 8 8 8 8 8 8
9 9 9 9 8 8 9 8 9 9 9 9 10 10 11 11 11 11 11 11 11 11 10 10 10 10 10 10 10 10 10 9 9 9 9 9 9 9 8 8 8 8 8 8 8 8 7 7 7
8 9 9 9 8 8 8 8 8 8 10 9 9 10 11 11 11 11 11 11 11 10 10 10 10 10 10 10 10 9 9 9 9 9 9 9 8 8 8 8 8 8 7 7 7 7 7 7 6
8 8 8 6 6 8 9 8 8 8 9 10 9 10 11 11 10 11 10 10 10 10 10 10 9 9 9 9 9 9 9 9 8 8 8 8 8 8 8 7 7 7 7 7 7 6 6 6 6
8 7 7 8 7 8 8 8 8 9 9 9 9 10 10 10 10 10 10 10 10 10 10 9 9 9 9 9 9 8 8 8 8 8 8 8 7 7 7 7 7 6 6 6 6 6 6 5 5
8 8 7 9 8 7 7 7 8 9 9 10 10 10 10 10 10 10 10 10 10 9 9 9 9 9 9 8 8 8 8 8 8 7 7 7 7 7 6 6 6 6 6 6 6 5 5 5 5
8 7 7 6 7 7 7 7 8 9 9 9 9 9 10 10 10 10 10 10 9 9 9 9 9 8 8 8 8 8 8 7 7 7 7 6 6 6 6 6 5 5 5 5 5 5 5 4 4
8 7 5 6 8 8 8 7 7 8 8 8 8 9 10 10 10 10 10 9 9 9 9 8 8 8 8 8 8 7 7 7 7 7 6 6 6 6 5 5 5 5 5 5 4 4 4 4 4
7 7 6 5 6 7 7 8 8 8 8 7 8 9 10 10 10 10 9 9 9 8 8 8 8 8 8 7 7 7 7 7 7 6 6 6 6 5 5 5 5 4 4 4 4 4 4 3 3
7 7 6 6 6 5 5 7 8 7 7 8 9 9 9 9 9 9 9 9 8 8 8 8 7 7 7 7 7 7 7 6 6 6 6 6 5 5 5 5 4 4 4 4 3 3 3 3 3
Wind_Speed
7 7 2 3 4 2 4 4 3 3 2 1 3 7 8 5 4 6 3 4 8 8 9 9 10 9 9 9 9 8 8 8 7 7 7 7 7 7 6 6 6 6 6 5 5 5 5 4 2
4 2 4 4 4 3 5 4 3 4 5 5 5 6 6 5 4 6 3 5 9 9 9 10 10 10 9 9 9 8 8 7 7 7 7 6 6 6 6 6 6 6 6 6 6 5 4 4 4
3 1 3 3 4 7 6 5 5 2 1 3 5 5 5 4 3 3 4 8 10 9 9 10 11 10 10 9 9 9 9 8 7 7 7 6 6 6 6 6 6 6 6 5 5 5 5 4 4
2 3 3 3 5 5 5 5 5 3 3 5 5 5 4 3 2 4 6 9 9 8 8 9 11 10 10 9 9 8 8 8 8 8 7 7 7 6 6 6 6 6 6 6 5 5 5 5 5
3 3 3 2 4 3 3 4 4 3 3 4 5 5 3 4 4 8 8 9 9 7 9 10 10 10 9 9 8 8 8 8 8 8 7 7 7 7 6 6 6 6 6 6 6 5 6 6 6
3 3 4 5 4 2 3 3 3 4 4 4 5 5 3 1 5 7 9 9 9 8 9 10 10 9 9 9 8 8 8 8 7 7 7 7 8 7 7 6 6 6 6 7 7 6 6 6 7
4 4 5 6 5 4 4 2 5 5 4 3 5 6 4 1 2 6 9 9 9 9 8 8 9 8 8 8 8 8 8 8 8 8 8 8 8 8 8 7 7 7 7 7 7 7 7 7 7
4 4 4 4 6 5 3 2 3 5 4 2 4 7 6 4 4 8 9 9 8 7 7 7 8 8 7 7 8 8 8 8 8 9 9 9 8 8 8 8 8 8 8 8 8 8 8 8 8
3 4 4 6 6 5 1 3 3 3 5 4 3 3 5 8 8 9 8 6 6 6 5 6 6 7 7 6 7 8 8 8 8 8 9 9 8 8 8 8 9 8 9 9 9 9 9 9 9
4 4 5 4 4 4 2 3 3 4 5 4 5 5 7 8 9 8 7 6 5 4 3 4 5 6 7 6 7 8 7 8 9 8 8 7 7 7 7 8 9 9 10 10 10 11 10 9 8
3 4 3 1 2 4 3 3 2 7 3 4 6 7 6 7 7 7 6 5 5 4 3 3 4 5 6 5 6 6 7 8 8 9 8 8 7 7 7 7 8 9 10 9 10 10 9 8 8
3 1 1 1 1 3 4 3 3 3 4 4 7 9 7 8 7 7 6 5 4 4 4 3 4 4 5 5 5 5 5 6 6 7 8 7 5 5 6 5 7 7 8 8 8 7 8 9 9
3 2 3 5 7 5 6 5 4 1 3 6 8 8 8 7 6 5 6 6 5 5 4 3 3 4 4 5 4 5 5 5 6 7 8 7 5 3 4 5 6 7 8 7 6 6 7 7 8
4 5 4 5 5 3 5 3 3 1 5 7 8 7 6 7 6 5 5 5 4 4 4 3 3 3 4 4 3 4 4 5 6 7 7 7 6 5 4 4 5 6 7 7 6 6 5 5 6
3 5 5 4 3 2 5 3 1 4 6 7 7 6 6 5 5 6 6 5 5 4 3 3 4 3 4 3 3 4 4 5 5 6 7 8 7 6 4 3 4 6 7 8 6 6 6 5 6
4 5 3 3 2 1 4 2 3 4 7 7 6 6 5 4 5 5 5 5 5 4 3 3 3 3 3 3 3 3 4 5 5 6 7 8 8 7 5 3 4 7 7 6 4 4 5 5 6
4 3 2 2 2 1 3 4 3 3 7 7 6 6 6 4 4 4 5 5 5 5 4 3 3 3 3 3 3 3 4 5 4 5 6 7 7 7 5 4 5 7 5 4 4 4 4 5 6
4 3 2 2 1 2 2 3 4 3 6 7 6 6 6 6 6 5 5 5 5 4 4 4 3 2 2 3 3 3 3 3 4 4 5 6 6 6 6 4 6 6 3 4 4 4 4 3 5
4 5 3 1 1 1 2 4 6 5 5 7 7 6 6 7 4 4 5 5 4 4 4 4 3 2 2 2 2 1 0 0 1 1 3 4 5 5 5 4 4 4 3 3 4 3 4 4 5
5 5 2 1 1 1 1 4 5 5 5 7 8 8 7 5 3 4 5 4 5 5 5 4 4 3 2 2 2 2 2 1 1 0 2 3 3 4 4 3 2 3 2 4 4 3 3 3 5
4 3 3 2 2 2 1 5 4 3 2 3 4 5 5 6 7 6 6 5 5 5 6 5 4 4 3 3 2 2 1 1 1 1 1 2 2 2 2 3 3 3 2 2 3 3 3 2 3
2 1 2 2 3 2 1 2 5 3 2 2 4 4 5 5 5 5 6 6 6 6 5 5 4 4 4 4 4 4 3 2 2 1 1 1 2 2 2 2 2 2 2 2 3 3 2 1 2
2 0 2 2 2 2 1 2 7 2 2 3 4 4 5 5 5 6 7 7 6 5 4 4 4 4 4 4 5 4 3 3 2 1 1 2 2 2 2 1 2 2 1 1 2 2 2 1 1
1 4 5 5 4 1 2 3 5 4 5 4 4 4 4 4 4 4 4 4 3 3 3 3 4 4 4 4 5 5 5 4 3 3 2 2 2 2 2 1 1 1 1 1 1 1 1 1 1
4 5 4 4 4 4 2 2 7 5 4 5 6 5 4 4 3 3 3 3 3 3 4 4 4 5 4 5 5 5 6 6 5 5 4 3 2 2 3 2 1 1 2 2 1 1 1 1 1
1 4 5 3 3 4 3 4 6 4 1 2 4 4 4 3 3 3 4 4 4 4 4 4 5 5 4 4 5 5 5 4 4 5 4 4 4 4 3 3 2 3 2 2 1 1 1 1 1
2 1 3 5 1 2 5 6 5 1 2 3 3 3 3 2 2 2 2 2 3 4 4 5 5 5 4 4 4 4 4 5 5 5 4 4 4 4 4 3 3 3 2 2 1 1 2 1 1
2 3 4 3 3 3 5 5 4 4 4 3 3 3 3 3 2 2 2 2 3 3 3 3 4 5 5 4 4 4 4 5 5 4 5 5 5 4 4 4 4 3 3 2 2 2 2 2 2
1 1 3 3 3 4 3 6 5 6 6 6 5 5 5 4 4 3 3 2 2 2 2 2 3 4 4 4 4 4 4 4 4 5 6 5 5 5 5 5 5 4 4 3 3 3 3 3 3
3 3 5 3 3 3 3 7 4 4 5 6 5 4 4 3 3 3 2 1 1 2 2 3 3 4 5 4 4 4 4 4 4 5 6 5 5 5 5 5 5 5 5 4 4 4 4 4 3
Wind_Direction
321 337 54 61 71 78 220 237 201 148 134 130 89 98 106 99 124 149 163 126 121 130 128 121 115 109 102 97 92 85 79 74 69 66 62 56 51 48 45 42 41 37 35 34 30 27 27 24 25
343 3 61 72 125 177 237 232 193 189 172 141 79 80 83 84 79 107 125 122 118 122 120 119 113 108 102 97 92 85 80 74 68 64 57 52 46 44 42 38 37 32 29 27 21 15 11 10 9
347 55 96 101 158 190 202 197 187 199 121 115 81 57 82 100 102 109 124 123 110 107 108 117 113 107 102 98 90 84 78 73 67 61 55 50 45 42 38 36 34 29 22 14 10 5 356 351 346
66 63 65 121 203 222 199 189 183 142 65 66 98 73 52 25 105 123 120 115 106 97 98 107 111 108 103 98 91 84 78 71 65 58 51 46 43 39 36 34 30 25 18 7 358 353 347 338 329
66 98 109 176 220 244 223 202 178 125 97 78 95 94 61 1 87 109 111 111 108 98 88 93 104 107 104 100 93 85 80 73 66 58 51 46 41 37 34 30 26 22 12 3 351 345 339 334 327
77 94 134 185 199 215 222 219 139 105 99 86 88 101 116 15 87 106 111 111 108 103 88 90 94 100 102 99 94 86 79 73 65 57 52 46 41 37 32 26 21 16 9 2 354 343 336 329 325
120 125 162 174 177 199 215 165 128 121 99 105 119 112 130 138 101 108 107 106 98 92 84 77 78 84 91 94 91 84 78 72 62 55 49 44 39 36 34 27 20 12 5 -0 355 346 335 328 324
139 119 142 171 172 200 205 97 96 112 119 70 97 134 163 192 135 102 96 96 94 85 77 71 69 70 77 85 84 80 74 68 59 52 48 45 38 33 31 23 17 12 6 357 351 345 336 327 323
107 90 173 186 177 194 171 88 58 72 96 56 53 131 157 143 122 103 96 88 88 80 68 67 65 62 67 83 79 76 72 64 57 50 47 43 33 28 26 19 16 11 7 1 356 349 342 334 325
98 144 198 205 191 173 125 104 126 86 70 69 61 69 110 120 119 119 118 115 107 95 73 62 63 61 62 71 71 68 67 60 54 47 42 36 32 28 24 18 16 12 7 2 357 353 349 343 332
120 163 183 207 191 143 108 101 97 120 119 174 158 150 135 124 125 128 127 127 130 123 98 69 65 61 59 60 64 57 58 56 50 44 40 37 32 25 22 19 14 10 6 2 356 355 351 344 336
107 48 130 25 78 97 114 121 79 117 181 175 159 151 142 138 142 143 140 138 132 123 111 88 75 67 61 66 63 59 55 51 43 36 37 37 29 20 16 17 11 11 6 359 358 353 347 345 341
102 94 53 67 76 87 90 89 97 78 117 118 124 133 145 147 145 145 143 137 130 127 121 101 88 74 68 66 58 53 49 54 48 42 36 39 33 18 12 11 12 8 6 2 355 352 347 343 340
117 96 67 48 56 55 88 61 78 167 132 124 131 146 154 154 149 139 137 136 136 135 134 115 92 81 78 78 72 57 52 54 50 41 36 40 35 22 18 14 13 8 4 358 350 348 343 339 339
82 72 42 21 36 33 86 33 200 184 139 138 147 154 156 158 151 152 156 151 150 142 136 131 119 94 88 86 78 65 56 61 52 39 36 39 37 32 30 22 13 5 2 1 359 358 354 352 345
54 60 57 342 29 51 108 207 243 175 151 160 165 167 165 167 166 164 159 151 149 139 133 127 119 105 101 100 87 70 62 66 55 44 38 33 34 35 34 29 10 4 9 10 1 3 355 351 343
47 95 123 314 336 117 137 216 244 170 165 177 187 187 182 181 182 178 169 157 152 149 143 134 124 122 120 109 93 79 68 65 56 47 39 30 31 35 37 31 13 11 15 10 0 1 356 343 340
170 148 149 203 279 109 164 245 257 220 191 195 198 197 196 197 203 188 175 160 152 148 144 142 139 138 126 106 86 69 57 57 50 41 37 29 23 29 35 31 18 17 16 7 1 351 352 340 334
145 127 127 229 275 118 217 258 264 242 214 212 211 207 208 216 210 181 169 157 147 147 148 154 154 160 129 115 113 109 110 25 29 24 31 26 18 22 32 26 18 16 16 3 354 348 350 354 350
107 108 93 10 358 136 266 282 272 247 223 213 207 208 207 206 196 184 175 172 171 172 176 174 179 179 172 162 161 167 173 192 212 318 14 17 17 18 25 29 14 9 9 7 4 4 358 352 7
51 128 149 155 355 24 13 319 294 278 239 219 206 201 196 194 197 194 185 190 188 194 197 192 194 193 190 172 142 121 87 30 356 326 320 343 358 7 18 21 23 10 17 4 356 4 12 346 346
74 353 121 101 76 332 74 286 286 279 277 227 207 191 199 198 194 193 192 196 202 212 208 200 198 199 196 174 164 172 181 204 227 229 254 305 332 347 1 18 22 11 8 358 348 9 358 1 335
158 314 74 78 96 11 18 159 284 303 245 246 223 204 203 198 192 198 200 200 206 208 208 210 204 208 202 184 182 182 197 212 228 246 274 292 307 310 327 356 17 0 351 332 338 354 4 9 331
109 54 49 46 66 338 241 172 273 248 229 220 208 196 190 188 188 195 203 195 208 212 213 216 210 221 212 198 194 192 203 212 221 242 254 270 278 287 301 302 334 324 316 307 312 324 352 347 334
57 79 43 9 8 259 288 194 252 264 246 202 189 189 188 178 166 187 203 206 216 220 222 220 218 230 223 211 209 206 210 210 217 230 235 242 254 260 265 271 276 274 272 276 291 290 304 301 295
19 125 148 185 225 285 326 245 262 293 322 136 147 157 156 167 191 203 213 216 222 233 231 227 229 238 232 222 224 219 216 216 227 229 227 232 237 242 241 241 254 260 258 262 267 260 261 256 259
106 104 158 131 148 283 286 286 304 58 79 104 120 129 164 204 224 235 246 239 239 244 240 232 234 244 245 238 235 233 226 223 230 233 228 235 237 239 229 230 239 247 245 242 232 245 259 253 253
133 141 91 117 153 263 295 274 245 223 201 169 164 175 203 225 250 262 257 249 247 246 250 254 241 244 250 247 240 241 237 233 232 230 231 234 238 236 231 233 233 236 237 230 221 242 250 246 260
152 130 118 121 157 168 261 272 230 206 188 177 192 202 209 218 234 246 253 259 268 284 281 271 265 261 262 254 246 249 250 241 237 236 238 236 236 230 231 232 232 234 236 229 223 233 234 239 256
200 190 153 158 221 190 207 269 283 194 181 179 198 217 227 234 237 242 253 271 284 290 291 283 275 268 263 257 250 250 252 246 243 246 245 236 235 233 228 226 228 230 230 224 221 231 233 231 242
Height
1519 1520 1522 1524 1528 1536 1535 1528 1522 1522 1522 1522 1522 1522 1525 1530 1534 1541 1539 1538 1540 1541 1543 1544 1545 1546 1546 1546 1546 1546 1546 1546 1546 1546 1545 1545 1545 1544 1544 1544 1543 1543 1543 1542 1542 1542 1541 1541 1540
1518 1520 1523 1523 1531 1540 1534 1525 1522 1520 1520 1521 1522 1524 1526 1530 1532 1535 1536 1538 1540 1541 1542 1544 1544 1545 1545 1546 1546 1546 1546 1545 1545 1545 1545 1544 1544 1544 1543 1543 1542 1542 1542 1541 1541 1541 1540 1540 1540
1517 1519 1522 1523 1530 1533 1528 1521 1520 1518 1519 1520 1522 1525 1527 1531 1533 1534 1536 1538 1540 1541 1542 1543 1544 1545 1545 1545 1545 1545 1545 1545 1545 1544 1544 1544 1543 1543 1542 1542 1541 1541 1541 1540 1540 1540 1539 1539 1539
1517 1519 1521 1526 1527 1524 1520 1518 1517 1517 1518 1520 1522 1526 1529 1532 1533 1534 1536 1538 1540 1541 1542 1543 1544 1544 1545 1545 1545 1545 1545 1544 1544 1544 1544 1543 1542 1542 1541 1541 1540 1540 1539 1539 1539 1538 1538 1538 1538
1516 1517 1523 1527 1524 1520 1517 1516 1516 1517 1519 1521 1522 1526 1530 1532 1533 1534 1536 1538 1539 1541 1542 1543 1543 1544 1544 1544 1545 1544 1544 1544 1544 1543 1543 1542 1542 1541 1540 1540 1539 1538 1538 1538 1537 1537 1536 1536 1536
1515 1516 1526 1529 1524 1519 1517 1516 1516 1517 1519 1521 1523 1527 1531 1533 1533 1535 1536 1538 1539 1541 1541 1542 1543 1543 1544 1544 1544 1544 1544 1543 1543 1543 1542 1541 1541 1540 1539 1539 1538 1537 1537 1536 1536 1535 1535 1534 1534
1514 1517 1522 1524 1523 1520 1517 1516 1517 1518 1520 1522 1523 1527 1530 1532 1534 1535 1536 1538 1539 1540 1541 1542 1542 1543 1543 1543 1543 1543 1543 1543 1542 1542 1541 1540 1540 1539 1538 1538 1537 1536 1535 1535 1534 1533 1533 1532 1532
1512 1516 1520 1522 1521 1519 1516 1516 1517 1518 1520 1523 1524 1525 1529 1531 1533 1535 1536 1537 1539 1540 1541 1541 1542 1542 1542 1543 1542 1542 1542 1542 1541 1541 1540 1540 1539 1538 1537 1537 1536 1535 1534 1533 1532 1532 1531 1531 1530
1511 1519 1521 1519 1518 1516 1515 1516 1518 1519 1520 1522 1523 1525 1527 1530 1532 1534 1536 1537 1538 1540 1540 1541 1541 1542 1542 1542 1542 1542 1541 1541 1541 1540 1539 1539 1538 1537 1536 1535 1534 1534 1533 1532 1531 1530 1529 1529 1528
1511 1519 1516 1514 1513 1514 1515 1516 1518 1520 1520 1522 1523 1525 1527 1530 1532 1534 1535 1536 1537 1539 1540 1540 1541 1541 1541 1541 1541 1541 1541 1540 1540 1539 1538 1538 1537 1536 1535 1534 1533 1532 1531 1530 1529 1528 1527 1527 1526
1510 1514 1513 1512 1512 1512 1514 1516 1518 1519 1522 1522 1523 1524 1527 1529 1531 1533 1534 1536 1537 1538 1539 1539 1540 1540 1540 1540 1540 1540 1540 1539 1539 1538 1537 1537 1536 1535 1534 1533 1532 1531 1529 1528 1527 1526 1525 1525 1524
1511 1512 1511 1511 1511 1512 1514 1516 1518 1519 1521 1522 1523 1524 1527 1529 1531 1532 1534 1535 1536 1537 1538 1538 1539 1539 1539 1539 1539 1539 1539 1538 1538 1537 1536 1535 1534 1533 1532 1531 1530 1529 1527 1526 1525 1524 1523 1523 1522
1511 1513 1512 1512 1512 1513 1515 1517 1518 1520 1521 1522 1524 1525 1527 1529 1530 1532 1533 1535 1536 1536 1537 1538 1538 1538 1538 1538 1538 1538 1537 1537 1537 1536 1535 1534 1533 1532 1531 1529 1528 1527 1526 1524 1523 1522 1521 1520 1519
1512 1513 1514 1514 1514 1515 1516 1518 1520 1521 1522 1523 1524 1526 1527 1528 1530 1531 1533 1534 1535 1536 1536 1537 1537 1537 1537 1537 1537 1537 1536 1536 1535 1535 1534 1533 1532 1531 1529 1528 1527 1525 1524 1523 1521 1520 1519 1518 1517
1512 1515 1517 1517 1516 1518 1518 1522 1521 1521 1522 1523 1525 1526 1527 1529 1530 1531 1532 1533 1534 1535 1535 1536 1536 1536 1536 1536 1536 1535 1535 1534 1534 1533 1533 1532 1531 1529 1528 1526 1525 1524 1522 1521 1520 1518 1517 1516 1514
1515 1520 1524 1521 1519 1519 1523 1526 1521 1521 1522 1523 1524 1526 1527 1528 1529 1530 1531 1532 1533 1534 1534 1534 1535 1534 1535 1535 1534 1534 1534 1533 1532 1532 1531 1530 1529 1528 1527 1525 1524 1522 1521 1519 1518 1516 1514 1513 1512
1522 1526 1526 1524 1520 1520 1522 1524 1521 1521 1522 1522 1524 1525 1526 1527 1528 1529 1531 1532 1532 1533 1533 1533 1533 1533 1533 1533 1533 1533 1532 1531 1531 1531 1530 1529 1528 1527 1525 1524 1522 1521 1519 1517 1516 1514 1512 1510 1509
1525 1526 1526 1526 1522 1522 1523 1523 1521 1521 1521 1521 1522 1523 1525 1526 1527 1528 1529 1530 1531 1531 1532 1532 1532 1532 1532 1532 1531 1531 1531 1530 1530 1529 1528 1527 1527 1525 1524 1523 1521 1519 1518 1516 1514 1512 1510 1509 1507
1520 1523 1525 1525 1522 1523 1524 1523 1521 1520 1520 1520 1520 1521 1523 1524 1526 1527 1528 1529 1530 1530 1531 1531 1531 1531 1531 1530 1530 1530 1529 1529 1529 1528 1527 1526 1525 1524 1522 1521 1520 1518 1516 1514 1512 1511 1509 1507 1505
1521 1525 1526 1525 1523 1524 1525 1524 1520 1518 1518 1517 1518 1519 1520 1523 1524 1525 1526 1527 1528 1529 1529 1529 1529 1529 1529 1529 1529 1528 1528 1527 1526 1526 1525 1525 1523 1522 1521 1519 1518 1516 1514 1513 1511 1509 1507 1505 1504
1524 1526 1527 1527 1526 1524 1526 1525 1521 1517 1516 1516 1516 1517 1519 1521 1522 1523 1524 1525 1526 1527 1527 1527 1527 1528 1527 1527 1527 1526 1526 1525 1525 1524 1524 1523 1522 1520 1519 1517 1516 1514 1513 1511 1509 1508 1506 1504 1503
1527 1525 1524 1526 1530 1533 1530 1536 1523 1519 1517 1515 1516 1516 1518 1519 1520 1521 1522 1523 1524 1525 1525 1525 1525 1525 1525 1525 1525 1524 1523 1523 1523 1522 1521 1520 1519 1518 1517 1515 1514 1512 1511 1509 1508 1506 1504 1503 1501
1526 1525 1525 1527 1531 1534 1533 1537 1528 1520 1517 1516 1515 1515 1516 1518 1518 1519 1520 1522 1522 1523 1523 1523 1523 1523 1523 1522 1522 1522 1521 1520 1520 1519 1518 1517 1517 1515 1514 1513 1511 1510 1508 1507 1505 1504 1502 1501 1499
1525 1527 1529 1534 1537 1537 1531 1536 1529 1522 1516 1514 1514 1514 1515 1517 1518 1519 1520 1520 1521 1521 1521 1521 1520 1520 1520 1520 1520 1519 1518 1517 1517 1516 1515 1514 1513 1512 1511 1510 1508 1507 1506 1505 1503 1501 1500 1498 1497
1528 1534 1542 1540 1545 1538 1532 1533 1528 1516 1512 1511 1512 1513 1515 1516 1517 1518 1518 1519 1519 1519 1519 1519 1518 1518 1518 1518 1517 1516 1515 1514 1514 1513 1512 1511 1510 1509 1508 1507 1506 1505 1503 1502 1500 1499 1497 1496 1494
1529 1532 1541 1539 1542 1540 1534 1532 1522 1514 1512 1511 1512 1513 1515 1516 1516 1517 1517 1518 1518 1518 1518 1517 1516 1516 1515 1515 1513 1513 1512 1511 1510 1510 1509 1508 1507 1506 1505 1504 1503 1502 1500 1499 1497 1496 1494 1493 1491
1530 1534 1534 1542 1543 1544 1538 1529 1518 1513 1513 1513 1513 1514 1515 1516 1516 1516 1516 1516 1516 1516 1516 1515 1514 1513 1512 1511 1510 1509 1509 1508 1507 1506 1505 1504 1503 1502 1501 1500 1499 1498 1497 1496 1494 1493 1491 1490 1488
1530 1532 1539 1541 1541 1540 1535 1530 1525 1516 1514 1514 1514 1514 1515 1515 1515 1516 1515 1515 1515 1514 1514 1513 1512 1511 1510 1509 1508 1507 1506 1505 1504 1503 1501 1500 1500 1499 1497 1496 1495 1494 1493 1492 1491 1489 1488 1486 1485
1532 1532 1536 1542 1542 1542 1539 1530 1514 1512 1512 1513 1513 1513 1514 1514 1514 1514 1514 1513 1513 1512 1511 1510 1509 1508 1507 1506 1505 1503 1502 1501 1500 1499 1497 1497 1496 1495 1493 1492 1491 1490 1489 1488 1487 1485 1484 1483 1481
1530 1530 1534 1538 1539 1543 1543 1532 1510 1510 1510 1511 1512 1512 1513 1513 1513 1513 1512 1512 1511 1510 1509 1508 1506 1505 1504 1503 1501 1500 1499 1497 1496 1495 1493 1492 1491 1490 1489 1488 1487 1486 1485 1484 1483 1481 1480 1479 1477